EW5674 Weather Reports


time (UTC)temp
C
wind
direction
speed
KPH
gust
KPH
rain 1hr
cm
rain 24hr
cm
rain mn
cm
humidity
%
barometer
mb
20260508010013 2 136 0.0 1.6 0.00 0.00 0.00 1 1018.3
20260508004509 2 136 0.0 0.0 0.00 0.00 0.00 1 1018.1
20260508003005 2 136 0.0 0.0 0.00 0.00 0.00 1 1018.1
20260508001503 2 136 0.0 0.0 0.00 0.00 0.00 1 1018.2
20260508000057 2 136 0.0 0.0 0.00 0.00 0.00 1 1018.3
20260507234552 2 136 0.0 0.0 0.00 0.00 0.00 1 1018.3
20260507233047 3 136 0.0 1.6 0.00 0.00 0.00 1 1018.3
20260507231543 3 136 0.0 0.0 0.00 0.00 0.00 3 1018.3
20260507230039 3 136 0.0 1.6 0.00 0.00 0.00 11 1018.3
20260507224536 3 136 0.0 0.0 0.00 0.00 0.00 16 1018.3
20260507223031 3 136 0.0 0.0 0.00 0.00 0.00 20 1018.3
20260507221528 4 136 0.0 0.0 0.00 0.00 0.00 24 1018.2
20260507220025 4 136 0.0 0.0 0.00 0.00 0.00 28 1018.3
20260507214521 5 136 0.0 0.0 0.00 0.00 0.00 32 1018.2
20260507213019 5 136 0.0 0.0 0.00 0.00 0.00 38 1018.2
20260507211528 5 136 0.0 0.0 0.00 0.00 0.00 40 1018.2
20260507210008 6 136 0.0 0.0 0.00 0.00 0.00 43 1018.1
20260507204503 6 136 0.0 0.0 0.00 0.00 0.00 43 1018.1
20260507203102 6 136 0.0 0.0 0.00 0.00 0.00 44 1018.1
20260507201555 7 136 0.0 0.0 0.00 0.00 0.00 46 1018.1
20260507200050 7 136 0.0 1.6 0.00 0.00 0.00 47 1017.9
20260507194548 7 136 0.0 1.6 0.00 0.00 0.00 48 1017.7
20260507193044 7 136 0.0 3.2 0.00 0.00 0.00 51 1017.6
20260507191542 8 135 0.0 4.8 0.00 0.00 0.00 52 1017.4
20260507190033 8 136 0.0 6.4 0.00 0.00 0.00 53 1017.3
20260507184528 10 212 1.6 4.8 0.00 0.00 0.00 51 1017.2
20260507183024 10 138 0.0 6.4 0.00 0.00 0.00 49 1017.1
20260507181521 11 144 0.0 4.8 0.00 0.00 0.00 45 1017.1
20260507180034 11 138 0.0 6.4 0.00 0.00 0.00 45 1017.1
20260507174516 12 212 1.6 6.4 0.00 0.00 0.00 44 1017.0
20260507173013 12 127 0.0 8.0 0.00 0.00 0.00 43 1016.9
20260507171504 12 212 1.6 8.0 0.00 0.00 0.00 44 1016.9
20260507170059 12 154 3.2 9.7 0.00 0.00 0.00 43 1016.9
20260507164554 13 212 3.2 9.7 0.00 0.00 0.00 41 1016.8
20260507163056 13 162 1.6 8.0 0.00 0.00 0.00 40 1016.9
20260507161552 13 212 3.2 9.7 0.00 0.00 0.00 40 1016.9
20260507160041 14 212 1.6 6.4 0.00 0.00 0.00 39 1017.0
20260507154536 13 89 0.0 8.0 0.00 0.00 0.00 41 1017.0
20260507153032 12 170 1.6 14.5 0.00 0.00 0.00 42 1017.1
20260507151528 13 114 1.6 12.9 0.00 0.00 0.00 41 1017.0
20260507150025 12 141 1.6 14.5 0.00 0.00 0.00 41 1017.1
20260507144519 12 212 3.2 11.3 0.00 0.00 0.00 41 1017.1
20260507143015 12 133 4.8 14.5 0.00 0.00 0.00 40 1017.1
20260507141510 12 89 3.2 11.3 0.00 0.00 0.00 41 1017.1
20260507140008 12 133 1.6 9.7 0.00 0.00 0.00 40 1017.2
20260507134502 12 115 4.8 12.9 0.00 0.00 0.00 41 1017.1
20260507133058 12 212 1.6 14.5 0.00 0.00 0.00 41 1017.2
20260507131554 12 212 8.0 14.5 0.00 0.00 0.00 43 1017.0
20260507130101 13 212 6.4 16.1 0.00 0.00 0.00 40 1017.0
20260507124551 12 212 3.2 14.5 0.00 0.00 0.00 41 1017.0
20260507123040 12 156 4.8 14.5 0.00 0.00 0.00 41 1016.9
20260507121535 12 183 4.8 12.9 0.00 0.00 0.00 40 1016.9
20260507120033 12 212 6.4 16.1 0.00 0.00 0.00 41 1016.9
20260507114526 12 212 6.4 16.1 0.00 0.00 0.00 42 1016.9
20260507113026 11 212 3.2 12.9 0.00 0.00 0.00 43 1016.9
20260507111520 12 212 3.2 14.5 0.00 0.00 0.00 43 1016.9
20260507110012 12 127 1.6 17.7 0.00 0.00 0.00 44 1016.9
20260507104508 12 202 3.2 12.9 0.00 0.00 0.00 41 1016.8
20260507103004 11 212 3.2 8.0 0.00 0.00 0.00 40 1016.9
20260507101600 11 212 0.0 8.0 0.00 0.00 0.00 39 1016.9
20260507100107 10 217 0.0 11.3 0.00 0.00 0.00 42 1017.0
20260507094551 10 148 1.6 8.0 0.00 0.00 0.00 40 1017.0
20260507093047 10 207 1.6 8.0 0.00 0.00 0.00 41 1017.0
20260507091545 10 185 1.6 12.9 0.00 0.00 0.00 40 1016.9
20260507090038 9 212 4.8 12.9 0.00 0.00 0.00 40 1016.9
20260507084542 9 212 3.2 9.7 0.00 0.00 0.00 40 1016.9
20260507083029 8 221 4.8 12.9 0.00 0.00 0.00 39 1016.9
20260507081525 8 238 4.8 14.5 0.00 0.00 0.00 38 1016.9
20260507080020 8 231 4.8 12.9 0.00 0.00 0.00 36 1016.7
20260507074515 7 246 6.4 16.1 0.00 0.00 0.00 32 1016.7
20260507073012 7 259 6.4 12.9 0.00 0.00 0.00 20 1016.7
20260507071507 6 239 3.2 9.7 0.00 0.00 0.00 5 1016.8
20260507070004 5 238 1.6 9.7 0.00 0.00 0.00 1 1016.8
20260507064600 4 241 1.6 4.8 0.00 0.00 0.00 1 1016.8
20260507063054 3 217 0.0 4.8 0.00 0.00 0.00 1 1016.7
20260507061550 2 217 1.6 4.8 0.00 0.00 0.00 1 1016.6
20260507060045 2 217 0.0 1.6 0.00 0.00 0.00 1 1016.6
20260507054602 2 217 0.0 0.0 0.00 0.00 0.00 1 1016.7
20260507053037 1 217 0.0 0.0 0.00 0.00 0.00 1 1016.7
20260507051533 1 217 0.0 0.0 0.00 0.00 0.00 1 1016.6
20260507050039 1 217 0.0 0.0 0.00 0.00 0.00 1 1016.5
20260507044524 0 217 0.0 0.0 0.00 0.00 0.00 1 1016.4
20260507043019 0 217 0.0 1.6 0.00 0.00 0.00 1 1016.3
20260507041515 0 217 0.0 1.6 0.00 0.00 0.00 1 1016.3
20260507040011 0 217 0.0 0.0 0.00 0.00 0.00 1 1016.3
20260507034507 0 217 0.0 0.0 0.00 0.00 0.00 1 1016.2
20260507033002 0 217 0.0 1.6 0.00 0.00 0.00 1 1016.2
20260507031600 0 217 0.0 3.2 0.00 0.00 0.00 1 1016.1
20260507030053 0 217 0.0 0.0 0.00 0.00 0.00 1 1016.1
20260507024553 1 217 0.0 3.2 0.00 0.00 0.00 1 1016.0
20260507023044 1 217 0.0 1.6 0.00 0.00 0.00 1 1015.8
20260507021540 1 217 0.0 1.6 0.00 0.00 0.00 1 1015.8
20260507020045 1 217 0.0 1.6 0.00 0.00 0.00 1 1015.8
20260507014534 1 217 0.0 3.2 0.00 0.00 0.00 1 1015.9
20260507013026 2 217 0.0 1.6 0.00 0.00 0.00 1 1015.8
20260507011524 2 217 0.0 3.2 0.00 0.00 0.00 1 1015.7